Location: Asheville, NC
(35.6000°N, 82.5500°W)
Time: 16:53:26
(UTC-05:00)

ISS - Pass Details

Date: 12 January 2018
Orbit: 402 x 407 km, 51.6° (Epoch: 23 January)

Event Time Altitude Azimuth Distance (km) Brightness Sun altitude
Exits shadow 06:34:23 11° 342° (NNW) 1,432 -1.4 -13.2°
Maximum altitude 06:36:47 20° 31° (NNE) 1,005 -1.7 -12.7°
Drops below altitude 10° 06:39:18 10° 81° (E) 1,460 0.1 -12.2°
Sets 06:41:44 0° 99° (E) 2,318 2.0 -11.8°
